Location: Anjeux
(47.8815°N, 6.2076°E)
Time: 01:58:01
(UTC+00:00)

ISS - Pass Details

Date: 04 October 2021
Orbit: 417 x 423 km, 51.6° (Epoch: 23 October)

Event Time Altitude Azimuth Distance (km) Brightness Sun altitude
Rises 17:30:33 0° 293° (WNW) 2,366 1.5 -4.6°
Reaches altitude 10° 17:32:39 10° 292° (WNW) 1,500 0.4 -4.9°
Maximum altitude 17:36:01 76° 206° (SSW) 436 -3.6 -5.5°
Drops below altitude 10° 17:39:22 10° 121° (ESE) 1,497 -1.5 -6.1°
Enters shadow 17:40:21 - 120° (ESE) 1,901 -1.0 -6.2°
